Flag for Pakistan Weather past 2 weeks in Narowal, Pakistan

Now
81 °F

Fog.


Feels Like: 88 °F
Forecast: 81 / 105 °F
Wind: No wind

Location: Amritsar Airport

Current Time: Aug 21, 2014 at 4:19:02 AM

Latest Report: Aug 21, 2014 at 3:30 AM


Visibility: 2 mi

Pressure: 29.56 "Hg

Humidity: 94%

Dew point: 79 °F

Location of NarowalLocation

Historic Weather in Narowal — Graph

°F

Narowal temperature yesterday

Maximum temperature yesterday: 97 °F (at 1:00 PM)
Minimum temperature yesterday: 82 °F (at 2:30 AM)
Average temperature yesterday: 88 °F

Past Weeks' High & Low Weather Summary

 TemperatureHumidityPressure
High97 °F (Aug 6, 4:30 PM)100% (Aug 6, 3:30 AM)29.80 "Hg (Aug 6, 3:30 AM)
Low73 °F (Aug 16, 9:00 AM)47% (Aug 20, 1:00 PM)29.39 "Hg (Aug 14, 5:30 PM)
Average86 °F82%29.57 "Hg
* Reported Aug 6 3:30 AM — Aug 21 3:00 AM, Narowal, Weather by CustomWeather, © 2014

Note: Actual official high and low records may vary slightly from our data, if they occured in-between our weather recording intervals... More about our weather records

Advertising

Narowal weather history for previous 24 hours

 ConditionsComfort  
Time TempWeatherWind HumidityBarometerVisibility
3:00 AM
Aug 21
82 °FFog.No wind89%29.56 "Hg2 mi
2:30 AM82 °FFog.No wind89%29.56 "Hg2 mi
2:00 AM82 °FFog.No wind94%29.56 "Hg2 mi
1:00 AM82 °FFog.No wind94%29.59 "Hg2 mi
12:30 AM82 °FFog.No wind94%29.59 "Hg2 mi
12:00 AM84 °FFog.No wind84%29.59 "Hg2 mi
11:30 PM
Aug 20
86 °FFog.No wind79%29.59 "Hg2 mi
11:00 PM86 °FFog.No wind79%29.59 "Hg2 mi
10:30 PM86 °FFog.No wind75%29.59 "Hg2 mi
10:00 PM86 °FFog.No wind79%29.59 "Hg2 mi
9:30 PM84 °FFog.No wind84%29.62 "Hg2 mi
9:00 PM84 °FFog.No wind84%29.62 "Hg2 mi
8:30 PM86 °FFog.No wind79%29.59 "Hg2 mi
8:00 PM86 °FFog.No wind84%29.59 "Hg2 mi
7:30 PM86 °FFog.No wind79%29.59 "Hg2 mi
7:00 PM88 °FHaze.No wind70%29.59 "Hg2 mi
6:30 PM88 °FHaze.3 mph70%29.59 "Hg3 mi
6:00 PM90 °FHaze.1 mph67%29.59 "Hg3 mi
5:30 PM91 °FHaze.6 mph67%29.59 "Hg3 mi
5:00 PM93 °FHaze.7 mph59%29.59 "Hg3 mi
4:30 PM93 °FClear.7 mph59%29.62 "Hg4 mi
4:00 PM95 °FClear.7 mph56%29.62 "Hg4 mi
3:30 PM95 °FClear.7 mph56%29.62 "Hg4 mi
3:00 PM95 °FClear.8 mph53%29.65 "Hg4 mi
2:30 PM95 °FClear.9 mph53%29.65 "Hg4 mi
2:00 PM95 °FClear.8 mph50%29.65 "Hg4 mi
1:30 PM97 °FClear.8 mph50%29.65 "Hg4 mi
1:00 PM97 °FClear.8 mph47%29.68 "Hg4 mi
11:00 AM93 °FHaze.8 mph56%29.71 "Hg3 mi
10:30 AM93 °FHaze.8 mph53%29.71 "Hg3 mi
10:00 AM93 °FHaze.7 mph59%29.71 "Hg2 mi
9:30 AM91 °FHaze.8 mph67%29.71 "Hg2 mi
9:00 AM90 °FHaze.6 mph71%29.71 "Hg2 mi
8:30 AM90 °FFog.8 mph75%29.71 "Hg2 mi
7:00 AM84 °FFog.No wind94%29.68 "Hg1 mi
6:30 AM84 °FFog.No wind89%29.68 "Hg1 mi
6:00 AM82 °FFog.No wind94%29.65 "Hg1 mi
5:30 AM82 °FFog.No wind94%29.65 "Hg1 mi
5:00 AM82 °FFog.No wind100%29.65 "Hg1 mi
4:30 AM82 °FFog.No wind100%29.65 "Hg1 mi
4:00 AM82 °FFog.No wind94%29.65 "Hg2 mi
Weather by CustomWeather, © 2014

See weather overviewHow to use our weather pages